Location: Newark
(15.4608°S, 41.1635°W)
Time: 10:43:39
(UTC+00:00)

Vanguard 3 - Pass Details

Date: 03 August 2021
Orbit: 510 x 3260 km, 33.3° (Epoch: 22 September)

Event Time Altitude Azimuth Distance (km) Brightness Sun altitude
Rises 13:04:17 0° 224° (SW) 2,617 9.4 48.0°
Reaches altitude 10° 13:06:37 10° 209° (SSW) 1,755 8.6 48.3°
Maximum altitude 13:09:49 25° 151° (SSE) 1,189 8.1 48.8°
Drops below altitude 10° 13:13:44 10° 94° (E) 2,185 9.8 49.4°
Sets 13:17:01 0° 82° (E) 3,448 10.8 49.9°
